2014-12-23 00:01:21 r, 18.82m,0000000002Hz,0000185302c,0000000.402s, 014.1C,00002191
2014-12-23 00:11:20 r, 18.87m,0000000002Hz,0000192912c,0000000.419s, 014.1C,00002191
2014-12-23 00:21:17 r, 18.88m,0000000002Hz,0000195665c,0000000.425s, 014.1C,00002191
2014-12-23 00:31:19 r, 18.95m,0000000002Hz,0000208268c,0000000.452s, 014.1C,00002191
2014-12-23 00:41:17 r, 18.98m,0000000003Hz,0000213929c,0000000.464s, 013.8C,00002191
2014-12-23 00:51:19 r, 18.98m,0000000003Hz,0000212313c,0000000.461s, 013.8C,00002191
2014-12-23 01:01:17 r, 18.94m,0000000002Hz,0000205220c,0000000.445s, 013.8C,00002191
2014-12-23 01:11:19 r, 18.97m,0000000003Hz,0000211789c,0000000.460s, 013.8C,00002191
2014-12-23 01:21:17 r, 18.89m,0000000002Hz,0000197349c,0000000.428s, 013.8C,00002191
2014-12-23 01:31:19 r, 18.85m,0000000003Hz,0000190328c,0000000.413s, 013.8C,00002191
2014-12-23 01:41:19 r, 18.89m,0000000002Hz,0000198332c,0000000.430s, 013.8C,00002191
2014-12-23 01:51:20 r, 18.80m,0000000003Hz,0000180653c,0000000.392s, 013.8C,00002191
2014-12-23 02:01:18 r, 18.76m,0000000003Hz,0000175811c,0000000.382s, 013.8C,00002191
2014-12-23 02:11:20 r, 18.81m,0000000003Hz,0000183591c,0000000.398s, 013.8C,00002191
2014-12-23 02:21:18 r, 18.72m,0000000003Hz,0000168732c,0000000.366s, 013.8C,00002191
2014-12-23 02:31:20 r, 18.75m,0000000003Hz,0000173073c,0000000.376s, 013.8C,00002191
2014-12-23 02:41:17 r, 18.75m,0000000003Hz,0000173858c,0000000.377s, 013.8C,00002191
2014-12-23 02:51:19 r, 18.83m,0000000002Hz,0000186249c,0000000.404s, 013.8C,00002191
2014-12-23 03:01:18 r, 18.83m,0000000003Hz,0000186073c,0000000.404s, 013.8C,00002191
2014-12-23 03:11:17 r, 18.79m,0000000002Hz,0000179547c,0000000.390s, 013.8C,00002191
2014-12-23 03:21:17 r, 18.82m,0000000002Hz,0000184349c,0000000.400s, 013.8C,00002191
2014-12-23 03:31:20 r, 18.83m,0000000003Hz,0000186188c,0000000.404s, 013.8C,00002191
2014-12-23 03:41:19 r, 18.89m,0000000002Hz,0000194946c,0000000.423s, 013.5C,00002191
2014-12-23 03:51:17 r, 18.90m,0000000003Hz,0000197611c,0000000.429s, 013.5C,00002191
2014-12-23 04:01:19 r, 18.78m,0000000003Hz,0000178525c,0000000.387s, 013.5C,00002191
2014-12-23 04:11:17 r, 18.80m,0000000003Hz,0000181237c,0000000.393s, 013.5C,00002191
2014-12-23 04:21:19 r, 18.75m,0000000003Hz,0000173628c,0000000.377s, 013.5C,00002191
2014-12-23 04:31:19 r, 18.71m,0000000003Hz,0000167822c,0000000.364s, 013.8C,00002191
2014-12-23 04:41:20 r, 18.73m,0000000002Hz,0000171909c,0000000.373s, 013.8C,00002191
2014-12-23 04:51:19 r, 18.87m,0000000002Hz,0000193927c,0000000.421s, 013.8C,00002191
2014-12-23 05:01:20 r, 18.81m,0000000003Hz,0000183530c,0000000.398s, 013.5C,00002191
2014-12-23 05:11:17 r, 18.76m,0000000003Hz,0000175603c,0000000.381s, 013.5C,00002191
2014-12-23 05:21:19 r, 18.77m,0000000003Hz,0000176689c,0000000.383s, 013.5C,00002191
2014-12-23 05:31:19 r, 18.69m,0000000003Hz,0000163918c,0000000.356s, 013.5C,00002191
2014-12-23 05:41:19 r, 18.83m,0000000002Hz,0000185394c,0000000.402s, 013.5C,00002191
2014-12-23 05:51:19 r, 18.90m,0000000003Hz,0000197720c,0000000.429s, 013.5C,00002191
2014-12-23 06:01:19 r, 19.05m,0000000003Hz,0000225721c,0000000.490s, 013.5C,00002191
2014-12-23 06:11:17 r, 18.97m,0000000002Hz,0000210610c,0000000.457s, 013.5C,00002191
2014-12-23 06:21:17 r, 19.13m,0000000002Hz,0000244598c,0000000.531s, 013.5C,00002191
2014-12-23 06:31:19 r, 19.08m,0000000002Hz,0000232195c,0000000.504s, 013.2C,00002191
2014-12-23 06:41:17 r, 19.05m,0000000002Hz,0000226468c,0000000.491s, 013.2C,00002191
2014-12-23 06:51:17 r, 19.02m,0000000002Hz,0000220864c,0000000.479s, 013.2C,00002191
2014-12-23 07:01:20 r, 18.97m,0000000003Hz,0000210297c,0000000.456s, 013.2C,00002191
2014-12-23 07:11:17 r, 18.42m,0000000003Hz,0000127704c,0000000.277s, 013.2C,00002191
2014-12-23 07:21:19 r, 17.42m,0000000009Hz,0000050976c,0000000.111s, 013.2C,00002191
2014-12-23 07:31:19 r, 16.04m,0000000032Hz,0000014281c,0000000.031s, 013.2C,00002191
2014-12-23 07:41:18 r, 14.33m,0000000157Hz,0000000000c,0000000.000s, 012.8C,00002191
2014-12-23 07:51:17 r, 12.48m,0000000863Hz,0000000000c,0000000.000s, 013.2C,00002191
2014-12-23 08:01:20 r, 10.74m,0000004319Hz,0000000000c,0000000.000s, 012.8C,00002191
2014-12-23 08:11:17 r, 09.11m,0000019233Hz,0000000000c,0000000.000s, 013.2C,00002191
2014-12-23 08:21:20 r, 08.15m,0000046458Hz,0000000000c,0000000.000s, 012.8C,00002191
2014-12-23 08:31:17 r, 07.36m,0000095909Hz,0000000000c,0000000.000s, 012.8C,00002191
2014-12-23 08:41:20 r, 06.79m,0000162818Hz,0000000000c,0000000.000s, 012.8C,00002191
2014-12-23 08:51:18 r, 06.59m,0000195020Hz,0000000000c,0000000.000s, 012.8C,00002191
2014-12-23 09:01:19 r, 06.24m,0000271802Hz,0000000000c,0000000.000s, 012.8C,00002191
2014-12-23 09:11:17 r, 05.92m,0000362688Hz,0000000000c,0000000.000s, 012.8C,00002191
2014-12-23 09:21:18 r, 00.00m,0000554156Hz,0000000000c,0000000.000s, 013.2C,00002191
2014-12-23 09:31:17 r, 00.00m,0000596393Hz,0000000000c,0000000.000s, 013.2C,00002191
2014-12-23 09:41:18 r, 00.00m,0000596431Hz,0000000000c,0000000.000s, 013.2C,00002191
2014-12-23 09:51:17 r, 00.00m,0000596441Hz,0000000000c,0000000.000s, 013.2C,00002191
2014-12-23 10:01:19 r, 00.00m,0000596433Hz,0000000000c,0000000.000s, 013.5C,00002191
2014-12-23 10:11:17 r, 00.00m,0000596438Hz,0000000000c,0000000.000s, 013.5C,00002191
2014-12-23 10:21:20 r, 00.00m,0000596436Hz,0000000000c,0000000.000s, 013.8C,00002191
2014-12-23 10:31:18 r, 00.00m,0000596421Hz,0000000000c,0000000.000s, 014.1C,00002191
2014-12-23 10:41:19 r, 00.00m,0000596369Hz,0000000000c,0000000.000s, 014.5C,00002191
2014-12-23 10:51:19 r, 00.00m,0000596304Hz,0000000000c,0000000.000s, 014.5C,00002191
2014-12-23 11:01:17 r, 00.00m,0000596395Hz,0000000000c,0000000.000s, 014.8C,00002191
2014-12-23 11:11:17 r, 00.00m,0000596282Hz,0000000000c,0000000.000s, 014.8C,00002191
2014-12-23 11:21:17 r, 00.00m,0000596309Hz,0000000000c,0000000.000s, 014.8C,00002191
2014-12-23 11:31:18 r, 00.00m,0000596228Hz,0000000000c,0000000.000s, 014.8C,00002191
2014-12-23 11:41:17 r, 00.00m,0000596270Hz,0000000000c,0000000.000s, 014.8C,00002191
2014-12-23 11:51:18 r, 00.00m,0000596190Hz,0000000000c,0000000.000s, 015.1C,00002191
2014-12-23 12:01:19 r, 00.00m,0000596264Hz,0000000000c,0000000.000s, 015.1C,00002191
2014-12-23 12:11:18 r, 00.00m,0000596160Hz,0000000000c,0000000.000s, 015.7C,00002191
2014-12-23 12:21:17 r, 00.00m,0000596096Hz,0000000000c,0000000.000s, 015.7C,00002191
2014-12-23 12:31:19 r, 00.00m,0000596174Hz,0000000000c,0000000.000s, 016.1C,00002191
2014-12-23 12:41:17 r, 00.00m,0000596158Hz,0000000000c,0000000.000s, 016.1C,00002191
2014-12-23 12:51:20 r, 00.00m,0000596083Hz,0000000000c,0000000.000s, 016.1C,00002191
2014-12-23 13:01:17 r, 00.00m,0000596118Hz,0000000000c,0000000.000s, 015.7C,00002191
2014-12-23 13:11:20 r, 00.00m,0000596277Hz,0000000000c,0000000.000s, 015.4C,00002191
2014-12-23 13:21:17 r, 00.00m,0000596222Hz,0000000000c,0000000.000s, 015.1C,00002191
2014-12-23 13:31:19 r, 00.00m,0000596254Hz,0000000000c,0000000.000s, 015.1C,00002191
2014-12-23 13:41:17 r, 00.00m,0000596326Hz,0000000000c,0000000.000s, 015.1C,00002191
2014-12-23 13:51:19 r, 00.00m,0000596223Hz,0000000000c,0000000.000s, 014.8C,00002191
2014-12-23 14:01:18 r, 00.00m,0000596253Hz,0000000000c,0000000.000s, 015.1C,00002191
2014-12-23 14:11:18 r, 00.00m,0000596332Hz,0000000000c,0000000.000s, 014.8C,00002191
2014-12-23 14:21:17 r, 00.00m,0000596328Hz,0000000000c,0000000.000s, 014.8C,00002191
2014-12-23 14:31:19 r, 00.00m,0000596286Hz,0000000000c,0000000.000s, 014.8C,00002191
2014-12-23 14:41:17 r, 00.00m,0000596192Hz,0000000000c,0000000.000s, 015.1C,00002191
2014-12-23 14:51:17 r, 00.00m,0000596214Hz,0000000000c,0000000.000s, 015.1C,00002191
2014-12-23 15:01:18 r, 00.00m,0000596191Hz,0000000000c,0000000.000s, 015.1C,00002191
2014-12-23 15:11:18 r, 00.00m,0000596233Hz,0000000000c,0000000.000s, 014.8C,00002191
2014-12-23 15:21:18 r, 00.00m,0000596266Hz,0000000000c,0000000.000s, 015.1C,00002191
2014-12-23 15:31:18 r, 00.00m,0000596203Hz,0000000000c,0000000.000s, 015.1C,00002191
2014-12-23 15:41:17 r, 00.00m,0000596336Hz,0000000000c,0000000.000s, 014.8C,00002191
2014-12-23 15:51:19 r, 00.00m,0000596401Hz,0000000000c,0000000.000s, 014.8C,00002191
2014-12-23 16:01:17 r, 00.00m,0000439090Hz,0000000000c,0000000.000s, 014.5C,00002191
2014-12-23 16:11:17 r, 06.02m,0000330498Hz,0000000000c,0000000.000s, 014.1C,00002191
2014-12-23 16:21:17 r, 06.66m,0000184135Hz,0000000000c,0000000.000s, 013.8C,00002191
2014-12-23 16:31:20 r, 07.39m,0000093825Hz,0000000000c,0000000.000s, 013.8C,00002191
2014-12-23 16:41:17 r, 08.31m,0000040075Hz,0000000000c,0000000.000s, 013.8C,00002191
2014-12-23 16:51:17 r, 09.59m,0000012307Hz,0000000000c,0000000.000s, 013.8C,00002191
2014-12-23 17:01:18 r, 11.32m,0000002524Hz,0000000000c,0000000.000s, 013.5C,00002191
2014-12-23 17:11:17 r, 13.19m,0000000447Hz,0000000000c,0000000.000s, 013.5C,00002191
2014-12-23 17:21:17 r, 15.05m,0000000081Hz,0000005703c,0000000.012s, 013.5C,00002191
2014-12-23 17:31:23 r, 16.62m,0000000019Hz,0000024274c,0000000.053s, 013.5C,00002191
2014-12-23 17:41:18 r, 18.02m,0000000005Hz,0000088412c,0000000.192s, 013.5C,00002191
2014-12-23 17:51:20 r, 18.94m,0000000002Hz,0000204526c,0000000.444s, 013.5C,00002191
2014-12-23 18:01:17 r, 19.31m,0000000002Hz,0000289826c,0000000.629s, 013.5C,00002191
2014-12-23 18:11:18 r, 19.22m,0000000002Hz,0000266028c,0000000.577s, 013.5C,00002191
2014-12-23 18:21:17 r, 19.20m,0000000002Hz,0000259122c,0000000.562s, 013.5C,00002191
2014-12-23 18:31:20 r, 19.17m,0000000002Hz,0000252439c,0000000.548s, 013.5C,00002191
2014-12-23 18:41:17 r, 19.00m,0000000003Hz,0000216874c,0000000.471s, 013.5C,00002191
2014-12-23 18:51:17 r, 18.79m,0000000002Hz,0000179375c,0000000.389s, 013.5C,00002191
2014-12-23 19:01:17 r, 18.68m,0000000002Hz,0000163070c,0000000.354s, 013.5C,00002191
2014-12-23 19:11:18 r, 18.56m,0000000003Hz,0000145973c,0000000.317s, 013.5C,00002191
2014-12-23 19:21:18 r, 18.81m,0000000003Hz,0000182322c,0000000.396s, 013.5C,00002191
2014-12-23 19:31:18 r, 18.84m,0000000003Hz,0000187169c,0000000.406s, 013.2C,00002191
2014-12-23 19:41:17 r, 18.83m,0000000003Hz,0000186108c,0000000.404s, 013.2C,00002191
2014-12-23 19:51:20 r, 18.82m,0000000002Hz,0000184292c,0000000.400s, 013.2C,00002191
2014-12-23 20:01:21 r, 18.89m,0000000002Hz,0000194884c,0000000.423s, 013.2C,00002191
2014-12-23 20:11:20 r, 18.84m,0000000003Hz,0000186493c,0000000.405s, 013.2C,00002191
2014-12-23 20:21:17 r, 18.86m,0000000002Hz,0000190064c,0000000.412s, 013.2C,00002191
2014-12-23 20:31:18 r, 18.71m,0000000003Hz,0000166915c,0000000.362s, 013.2C,00002191
2014-12-23 20:41:18 r, 18.65m,0000000003Hz,0000158623c,0000000.344s, 013.2C,00002191
2014-12-23 20:51:18 r, 18.66m,0000000003Hz,0000159263c,0000000.346s, 013.2C,00002191
2014-12-23 21:01:17 r, 18.70m,0000000003Hz,0000164334c,0000000.357s, 012.8C,00002191
2014-12-23 21:11:19 r, 18.73m,0000000003Hz,0000169637c,0000000.368s, 012.8C,00002191
2014-12-23 21:21:17 r, 18.60m,0000000003Hz,0000151547c,0000000.329s, 012.8C,00002191
2014-12-23 21:31:17 r, 18.59m,0000000003Hz,0000149826c,0000000.325s, 012.8C,00002191
2014-12-23 21:41:37 r, 18.74m,0000000002Hz,0000170102c,0000000.369s, 012.8C,00002191
2014-12-23 21:51:20 r, 18.66m,0000000003Hz,0000158134c,0000000.343s, 012.5C,00002191
2014-12-23 22:01:17 r, 18.61m,0000000003Hz,0000151873c,0000000.330s, 012.5C,00002191
2014-12-23 22:11:20 r, 18.75m,0000000002Hz,0000172800c,0000000.375s, 012.5C,00002191
2014-12-23 22:21:17 r, 18.97m,0000000002Hz,0000210275c,0000000.456s, 012.5C,00002191
2014-12-23 22:31:18 r, 19.03m,0000000003Hz,0000223618c,0000000.485s, 012.5C,00002191
2014-12-23 22:41:17 r, 19.07m,0000000002Hz,0000230332c,0000000.500s, 012.5C,00002191
2014-12-23 22:51:20 r, 19.30m,0000000001Hz,0000287941c,0000000.625s, 012.5C,00002191
2014-12-23 23:01:17 r, 19.29m,0000000002Hz,0000284030c,0000000.616s, 012.5C,00002191
2014-12-23 23:11:20 r, 19.28m,0000000002Hz,0000281171c,0000000.610s, 012.5C,00002191
2014-12-23 23:21:17 r, 19.34m,0000000002Hz,0000295668c,0000000.642s, 012.5C,00002191
2014-12-23 23:31:17 r, 19.23m,0000000001Hz,0000268817c,0000000.583s, 012.5C,00002191
2014-12-23 23:41:17 r, 18.88m,0000000002Hz,0000193892c,0000000.421s, 012.5C,00002191
2014-12-23 23:51:20 r, 18.89m,0000000002Hz,0000194845c,0000000.423s, 012.5C,00002191
